Orbital Elements at Epoch 2459000.5 (2020-May-31.0) TDB
Reference: JPL 26 (heliocentric ecliptic J2000)
Element | Value | Uncertainty (1-sigma) | Units |
e | .04141278215417483 | 3.4515e-08 | |
a | 2.626064861085139 | 1.2271e-08 | au |
q | 2.517312209070287 | 8.8436e-08 | au |
i | 12.93842012124787 | 5.9837e-06 | deg |
node | 12.67660464608469 | 1.5198e-05 | deg |
peri | 267.970290700252 | 8.0815e-05 | deg |
M | 43.41167015072117 | 7.8508e-05 | deg |
tp | 2458813.060726036293 (2019-Nov-25.56072604) | 0.0003393 | TDB |
period | 1554.377852606383 4.26 | 1.0895e-05 2.983e-08 | d yr |
n | .2316039175393238 | 1.6234e-09 | deg/d |
Q | 2.734817513099991 | 1.2779e-08 | au |
|
| | Orbit Determination Parameters
Additional Information
|